STARLINK-5998, 56468

Orbit data source: Space-Track

STARLINK-5998, 56468 is a payload satellite owned by SpaceX/Seattle (US) in LEO that was launched on Wed, 10 May 2023 UTC via an FALCON 9 launch vehicle from the Air Force Western Test Range (AFWTR). Payload-class satellites include a variety of spacecraft equipped with specific instruments for various scientific and technological missions. These include communications satellites like Starlink; space stations such as the ISS; scientific satellites like the Hubble; Earth observation satellites from companies like Planet Labs, Umbra, and HawkEye 360; GPS; miniature CubeSats for education and research; and military/defense satellites.

Loading next visibility...
Identifier
56468, 2023-064W
Orbit
LEO
Country
Flag of USUS
Related business
Manufacturer
SpaceX/Seattle
Mission
Operational Commercial Communications
Bus & Motor
STARLINK, Unknown motor
Mass
305 kg wet, ~290 kg dry
Launch date (UTC)
2023-05-10 (3 years ago)
Launch vehicle
FALCON 9
Launch site
Air Force Western Test Range (AFWTR)
Object type
Payload
Rocket body
Debris
Shape & HBR
Box + 1 Pan, 10.1 m
Radar Cross Section
11.087 m², Large (>1 m²)

Expand to show TLE details & history
Last TLE update: 2 days ago

TLE from 2 days ago
0 STARLINK-5998
1 56468U 23064W   26171.45371286  .00000078  00000-0  14334-4 0  9991
2 56468  69.9988 245.1634 0003532 267.9187  92.1567 14.98331195170640
Epoch: 2026-06-20T10:53Z
TLE epoch observation values (Epoch: 2026-06-20T10:53:20.791Z)
Latitude
-0.00006°
Longitude
173.15864°
Altitude
574.569 km
Speed
7.574 km/s
True Right ascension
16h 20m 39s
True Declination
0° 00' 00"
Sunlit
Object was in full shadow at epoch
Visualization orbit readout
Latitude
Unknown
Longitude
Unknown
Altitude
Unknown
Speed
Unknown
Apparent Right ascension
Unknown
Apparent Declination
Unknown
Sunlit
N/A
Visualization observer readout
Local Sidereal Time
00:39:37
Azimuth
Unknown
Elevation
Unknown
Doppler factor
Unknown
Orbital elements
Apogee altitude
572.455 km
Perigee altitude
567.546 km
Semi-major axis
6,948.138 km
Eccentricity
0.00035
Inclination
69.9988°
RAAN
245.1634°
Arg. of periapsis
267.9187°
True anomaly
92.19714°
Mean anomaly
92.1567°
Eccentric anomaly
92.17692°
Mean motion
3.74749 °/min
Orbital period
96.06 mins
BSTAR
0.000014334
Loading maneuver chart data...
Computing Atmospheric mass density...
Loading historical data...
Loading historical data...
Loading historical data...
Loading historical data...
Loading historical data...
Loading historical data...
Loading historical data...

Documentation

Showing up to 5 results
|